IRIDIUM 28 (24948 NORAD) Tracking and Keplerian Element Data

This shows tracking and keplerian element data for the satellite.

Feedback or suggestion? Click here.




ElementValue
Catalog24948
NameIRIDIUM 28
Epoch Orbit48056
Epoch Day354.18352618
Epoch Year2025
RAAN63.2274
Inclination86.3954
Eccentricity0.0002185
Argument of Perigee109.5464
Mean Anonmoly250.5969
Mean Motion14.37568265
Decay Rate3.01E-06
L11 24948U 97051E 25354.18352618 .00000301 00000+0 93766-4 0 9990
L22 24948 86.3954 63.2274 0002185 109.5464 250.5969 14.37568265480569



Live tracking and technical data element details for IRIDIUM 28 (NORAD 24948). IRIDIUM 28 can be tracked NOW for your location showing map with azimuth and elevation plus other details from your city location.







IsCatalogInMostPopularTable: catalog: 24948, numindb: 484
Update: records affected: 1



GetName: 24948 IRIDIUM 28

Hit Count: updated at: Wed, 15 Apr 2026 01:35:04 GMT